AirNav   TITAN Aviation Fuels
 
 1109 users online  

FD33 Green Swamp Aerodrome
Lakeland, Florida, USA

GOING TO LAKELAND?


FAA INFORMATION EFFECTIVE 20 MAY 2021

Location

FAA Identifier: FD33
Lat/Long: 28-12-42.3200N 081-59-52.5000W
28-12.705333N 081-59.875000W
28.2117556,-81.9979167
(estimated)
Elevation: 115 ft. / 35 m (estimated)
Variation: 02W (1985)
From city: 11 miles NW of LAKELAND, FL
Time zone: UTC -4 (UTC -5 during Standard Time)
Zip code: 33809

Airport Operations

Airport use: Private use. Permission required prior to landing
Activation date: 02/1985
Control tower: no
ARTCC: MIAMI CENTER
FSS: SAINT PETERSBURG FLIGHT SERVICE STATION
Attendance: CONTINUOUS
Wind indicator: yes
Segmented circle: no

Airport Communications

WX AWOS-3PT at ZPH (8 nm W): 118.975 (813-780-0031)
WX AWOS-3PT at LAL (13 nm S): 118.025 (863-834-2030)
WX AWOS-3 at PCM (15 nm SW): 120.025 (813-764-8259)
WX ASOS at GIF (16 nm SE): 133.675 (863-956-2097)
WX AWOS-3 at BOW (20 nm SE): 123.775 (863-533-9004)

Nearby radio navigation aids

VOR radial/distance  VOR name  Freq  Var
LALr003/13.6LAKELAND VORTAC116.0001E

Airport Services

Runway Information

Runway 18/36

Dimensions: 2600 x 100 ft. / 792 x 30 m
Surface: turf
RUNWAY 18  RUNWAY 36
Traffic pattern: leftleft
Displaced threshold: no300 ft.

Airport Ownership and Management from official FAA records

Ownership: Privately-owned
Owner: GREEN SWAMP AERODROME FD 33
11485 IRONHEAD TRAIL
LAKELAND, FL 33809
Phone 863-712-7447
RWY EASEMENT XG 8 LOTS: LOT 1: JOHN S MCCLOY III 50% / SALLY A STADER 50% LOT 2: JOHN S MCCLOY III LOT 3: MICHAEL ARALDI LOT 4: RONALD L SMITH LOT 5: MAUREEN HIGGINS LOT 6: SUZANNE ARALDI LOT 7:BENJIE R COLEMAN 50% / MELODY L COLEMAN 50% LOT 8: ROBERT A STOOS
Manager: JACK MCCLOY
11485 IRONHEAD TRAIL
LAKELAND, FL 33809
Phone 863-712-7447

Airport Operational Statistics

Aircraft based on the field: 9
Single engine airplanes: 8
Multi engine airplanes: 1
    

Additional Remarks

FOR CD CTC TAMPA APCH AT 813-878-2528.

Instrument Procedures

There are no published instrument procedures at FD33.

Some nearby airports with instrument procedures:

KZPH - Zephyrhills Municipal Airport (8 nm W)
KLAL - Lakeland Linder International Airport (13 nm S)
KPCM - Plant City Airport (15 nm SW)
KGIF - Winter Haven Regional Airport (16 nm SE)
KBOW - Bartow Executive Airport (20 nm SE)
 
Loc | Ops | Rwys | IFR | FBO | Links
Com | Nav | Svcs | Stats | Notes


 
Area around FD33 (Green Swamp Aerodrome)
 
Road maps at: MapQuest Bing Google
 
Aerial photo
WARNING: Photo may not be current or correct
Aerial photo of FD33 (Green Swamp Aerodrome)
Photo taken 29-Mar-2006
from RV4 "The Bandit"

Do you have a better or more recent aerial photo of Green Swamp Aerodrome that you would like to share? If so, please send us your photo.

 
Sectional chart

 
Airport distance calculator
Flying to Green Swamp Aerodrome? Find the distance to fly.

From to FD33

Sunrise and sunset
Times for 13-Jun-2021
 Local
(UTC-4)
 Zulu
(UTC)
Morning civil twilight06:0510:05
Sunrise06:3210:32
Sunset20:2400:24
Evening civil twilight20:5100:51

Current date and time
Zulu (UTC)  13-Jun-2021 19:41:13
Local (UTC-4)  13-Jun-2021 15:41:13
 
METAR
KZPH 
8nm W 
131915Z AUTO 19008KT 10SM SCT031 BKN039 BKN055 31/23 A2987 RMK A02 LTG DSNT N THRU E T03140235
KLAL 
15nm S 
131850Z 27010G14KT 10SM VCSH FEW035 32/21 A2988 RMK VCSH W MOV E
KPCM 
15nm SW 
131915Z AUTO 22006KT 3SM -RA SCT035 BKN045 OVC070 27/24 A2991 RMK AO2 P0005
KGIF 
16nm SE 
131853Z AUTO 27009KT 10SM CLR 31/22 A2989 RMK AO2 SLP120 T03060222
TAF
KLAL 
15nm S 
131737Z 1318/1418 28010KT P6SM VCTS SCT030CB BKN100 FM140200 25005KT P6SM SCT025 BKN100 FM141400 26010KT P6SM VCTS SCT030CB BKN100
NOTAMs
Click for the latest NOTAMs
NOTAMs are issued by the DoD/FAA and will open in a separate window not controlled by AirNav.

 

 
 

Would you like to see your business listed on this page?

 If your business provides an interesting product or service to pilots, flight crews, aircraft, or users of the Green Swamp Aerodrome, you should consider listing it here.  To start the listing process, click on the button below
 
Add a business
 

Other Pages about Green Swamp Aerodrome

Update a link
 
Copyright © AirNav, LLC. All rights reserved. Privacy Policy  Contact